Total_Precipitation_Accumulation
1.72 1.82 1.77 1.71 1.71 1.72 1.62 1.54 1.53 1.52 1.52 1.58 1.64 1.77 1.91 2.12 2.34 2.48 2.46 2.40 2.37 2.32 2.23 2.35 2.50 2.57 2.70 2.76 2.80 2.73 2.62 2.58 2.47 2.17 1.96 1.88 2.11 2.18 2.14 2.06 1.89 1.84 1.80
1.59 1.70 1.81 1.72 1.66 1.64 1.55 1.59 1.51 1.44 1.44 1.43 1.55 1.75 1.86 1.94 2.02 2.11 2.16 2.19 2.20 2.22 2.16 2.11 2.18 2.27 2.39 2.58 2.71 2.69 2.70 2.61 2.57 2.50 2.25 1.99 1.92 2.03 2.14 2.28 2.14 1.89 1.84
1.72 1.87 1.88 1.78 1.72 1.69 1.56 1.64 1.53 1.45 1.44 1.43 1.45 1.59 1.68 1.78 1.85 1.91 2.02 2.11 2.12 2.04 2.03 1.91 1.87 1.97 2.11 2.27 2.36 2.47 2.61 2.67 2.71 2.65 2.53 2.30 2.02 2.03 2.14 2.23 2.26 2.31 2.03
1.91 2.00 1.89 1.79 1.72 1.67 1.55 1.52 1.51 1.47 1.43 1.47 1.57 1.60 1.64 1.66 1.78 1.84 1.92 1.91 1.87 1.77 1.74 1.66 1.64 1.68 1.82 2.02 2.12 2.33 2.56 2.69 2.75 2.74 2.66 2.39 2.18 2.12 2.11 2.20 2.34 2.41 2.34
1.76 1.80 1.80 1.69 1.57 1.51 1.55 1.37 1.38 1.48 1.49 1.51 1.57 1.62 1.64 1.65 1.71 1.83 1.78 1.66 1.65 1.64 1.56 1.38 1.33 1.43 1.49 1.63 1.63 1.90 2.20 2.46 2.57 2.62 2.60 2.43 2.18 2.07 1.92 1.99 2.18 2.36 2.40
1.61 1.59 1.59 1.54 1.53 1.49 1.43 1.36 1.33 1.35 1.41 1.43 1.44 1.58 1.67 1.55 1.78 1.82 1.63 1.43 1.39 1.45 1.42 1.28 1.22 1.26 1.20 1.22 1.28 1.53 1.85 2.04 2.20 2.36 2.42 2.29 2.10 2.00 2.05 2.04 2.06 2.12 2.15
1.45 1.38 1.29 1.26 1.30 1.33 1.32 1.35 1.35 1.33 1.34 1.37 1.32 1.42 1.47 1.56 1.66 1.49 1.48 1.35 1.34 1.32 1.34 1.36 1.25 1.16 1.29 1.16 1.15 1.26 1.35 1.49 1.66 1.91 2.10 2.08 2.19 2.11 2.00 1.90 1.90 1.93 1.94
1.34 1.34 1.27 1.18 1.15 1.18 1.21 1.28 1.35 1.30 1.27 1.30 1.27 1.21 1.27 1.42 1.46 1.30 1.38 1.27 1.34 1.37 1.38 1.47 1.46 1.35 1.33 1.45 1.37 1.36 1.31 1.25 1.38 1.30 1.46 1.84 2.01 2.12 2.10 2.10 2.18 2.08 1.89
1.07 1.12 1.13 1.04 1.07 1.15 1.14 1.28 1.36 1.26 1.24 1.21 1.22 1.16 1.18 1.23 1.28 1.19 1.23 1.22 1.34 1.33 1.27 1.42 1.49 1.39 1.53 1.67 1.70 1.71 1.61 1.44 1.58 1.61 1.50 1.60 1.80 1.89 1.99 2.05 2.08 2.01 1.91
0.85 0.86 0.93 0.97 1.00 1.08 1.18 1.29 1.31 1.27 1.25 1.16 1.15 1.11 1.07 1.05 1.17 1.06 1.15 1.19 1.27 1.29 1.30 1.34 1.56 1.48 1.51 1.51 1.54 1.65 1.60 1.43 1.29 1.31 1.29 1.21 1.16 1.30 1.56 1.64 1.90 2.04 1.97
0.76 0.80 0.84 0.86 0.94 1.07 1.19 1.18 1.12 1.13 1.17 1.15 1.14 1.07 1.01 1.06 1.18 1.18 1.23 1.19 1.25 1.29 1.38 1.42 1.42 1.59 1.45 1.40 1.38 1.34 1.43 1.44 1.43 1.47 1.50 1.37 1.28 1.25 1.27 1.32 1.54 1.81 1.97
0.65 0.71 0.73 0.73 0.79 0.87 0.95 1.05 1.05 1.04 1.09 1.05 1.02 1.01 0.95 1.02 1.10 1.10 1.14 1.16 1.25 1.21 1.23 1.25 1.23 1.40 1.26 1.20 1.14 1.18 1.31 1.39 1.44 1.57 1.56 1.47 1.42 1.36 1.34 1.36 1.42 1.53 1.62
0.66 0.68 0.65 0.64 0.68 0.75 0.83 0.95 1.04 1.07 1.04 1.00 0.91 0.86 0.85 0.86 0.94 1.00 0.97 0.96 1.03 1.04 1.01 1.18 1.21 1.19 1.13 1.04 1.09 1.15 1.19 1.21 1.32 1.43 1.42 1.34 1.33 1.40 1.44 1.42 1.45 1.50 1.46
0.61 0.68 0.70 0.71 0.72 0.74 0.78 0.84 0.98 1.04 0.97 0.88 0.86 0.85 0.86 0.86 0.83 0.84 0.88 0.86 0.87 0.95 0.96 1.07 1.12 1.07 1.04 1.01 1.05 1.09 1.11 1.16 1.25 1.28 1.27 1.29 1.30 1.38 1.48 1.46 1.48 1.56 1.61
0.58 0.62 0.64 0.69 0.74 0.73 0.71 0.71 0.80 0.85 0.91 0.95 0.92 0.92 0.94 0.93 0.86 0.83 0.79 0.82 0.86 0.96 1.06 1.03 1.02 1.00 0.99 1.02 1.04 1.03 1.09 1.15 1.16 1.14 1.20 1.26 1.26 1.31 1.36 1.37 1.41 1.47 1.49
0.58 0.62 0.63 0.65 0.71 0.71 0.69 0.71 0.75 0.77 0.87 0.89 0.88 0.89 0.79 0.75 0.77 0.73 0.72 0.77 0.86 0.96 1.10 1.14 1.16 1.20 1.21 1.18 1.14 1.05 1.02 1.05 1.11 1.19 1.24 1.28 1.29 1.28 1.31 1.34 1.37 1.45 1.45
0.67 0.69 0.70 0.69 0.67 0.67 0.72 0.77 0.75 0.71 0.71 0.72 0.73 0.71 0.70 0.72 0.69 0.68 0.70 0.76 0.82 0.91 1.04 1.18 1.20 1.18 1.14 1.11 1.07 1.02 0.96 0.93 0.97 1.09 1.24 1.35 1.36 1.35 1.39 1.44 1.43 1.38 1.36
0.84 0.91 0.85 0.77 0.72 0.69 0.71 0.77 0.79 0.81 0.76 0.66 0.65 0.69 0.69 0.70 0.70 0.72 0.83 0.93 0.90 0.91 0.98 1.06 1.07 1.06 1.01 0.97 0.92 0.89 0.90 0.90 0.92 0.98 1.03 1.13 1.30 1.41 1.48 1.50 1.53 1.56 1.54
0.81 0.89 0.92 0.88 0.83 0.80 0.82 0.88 0.87 0.78 0.74 0.73 0.68 0.68 0.71 0.75 0.78 0.78 0.82 0.84 0.84 0.85 0.87 0.88 0.86 0.85 0.85 0.85 0.85 0.89 0.95 0.93 0.93 0.97 0.98 1.00 1.10 1.26 1.43 1.52 1.57 1.66 1.62
0.66 0.79 0.90 0.93 0.91 0.89 0.93 0.95 0.93 0.84 0.74 0.73 0.72 0.70 0.70 0.70 0.69 0.71 0.70 0.73 0.80 0.81 0.80 0.81 0.84 0.83 0.80 0.80 0.83 0.88 0.97 0.99 0.96 0.99 1.04 1.07 1.15 1.22 1.27 1.38 1.54 1.58 1.49
0.60 0.66 0.78 0.82 0.82 0.83 0.88 0.93 0.95 0.91 0.84 0.79 0.77 0.77 0.79 0.73 0.74 0.73 0.73 0.75 0.76 0.77 0.76 0.79 0.84 0.85 0.84 0.88 0.89 0.90 0.96 1.02 1.01 1.01 1.04 1.10 1.17 1.26 1.31 1.34 1.37 1.41 1.45
0.64 0.65 0.70 0.76 0.79 0.82 0.85 0.85 0.90 0.92 0.90 0.87 0.86 0.89 0.95 0.82 0.79 0.80 0.82 0.85 0.84 0.82 0.82 0.87 0.92 0.91 0.89 0.92 0.97 0.99 1.02 1.02 1.02 1.07 1.14 1.16 1.20 1.24 1.32 1.40 1.41 1.40 1.42
0.67 0.66 0.68 0.75 0.79 0.86 0.89 0.85 0.86 0.86 0.85 0.84 0.83 0.85 0.86 0.83 0.84 0.84 0.87 0.89 0.91 0.93 0.94 1.01 1.03 1.00 0.98 0.99 1.02 1.04 1.07 1.08 1.09 1.11 1.19 1.23 1.23 1.23 1.29 1.34 1.33 1.35 1.37
0.72 0.73 0.76 0.81 0.80 0.82 0.88 0.90 0.89 0.87 0.88 0.86 0.87 0.90 0.91 0.89 0.89 0.86 0.87 0.88 0.89 0.89 0.91 0.97 1.05 1.04 1.05 1.06 1.07 1.06 1.07 1.15 1.15 1.14 1.22 1.32 1.33 1.31 1.33 1.37 1.35 1.35 1.44
0.79 0.81 0.83 0.87 0.88 0.88 0.91 0.92 0.92 0.91 0.92 0.94 0.96 0.96 0.94 0.92 0.90 0.88 0.88 0.89 0.91 0.91 0.91 0.94 1.01 1.07 1.10 1.13 1.11 1.08 1.21 1.27 1.24 1.17 1.18 1.30 1.34 1.37 1.45 1.50 1.53 1.58 1.67
0.84 0.88 0.92 0.91 0.92 0.95 0.98 0.99 0.97 0.99 0.99 0.98 0.99 1.00 1.00 1.00 0.98 0.97 0.97 0.94 0.92 0.90 0.93 0.98 1.03 1.03 1.05 1.11 1.18 1.26 1.28 1.19 1.20 1.30 1.25 1.27 1.33 1.38 1.51 1.63 1.67 1.77 1.83